When you browse on this site, cookies collect data to enhance your experience and personalize the content and advertising you see.
Visit our Privacy Policy to learn more. By continuing to use the site, you agree to this use of cookies and data.
  • In Hungary
  • List of Countries
  • For 7 days
  • Water Temperature
  • Satellite Maps
  • Weather Map
  • News
  • Weather Widgets
  • user-avatar
    Login

    Hourly Weather Dziadowizna

    Today, 24 January, Thursday

    Time Temperature Precipitation Wind Pressure Humidity
    00:00 -10°C° 0 mm 4 mps 732 mmHg 84%
    01:00 -10°C° 0 mm 4 mps 733 mmHg 84%
    02:00 -10°C° 0 mm 4 mps 733 mmHg 84%
    03:00 -10°C° 0 mm 4 mps 733 mmHg 84%
    04:00 -10°C° 0 mm 4 mps 733 mmHg 85%
    05:00 -10°C° 0 mm 4 mps 733 mmHg 85%
    06:00 -10°C° 0 mm 4 mps 733 mmHg 85%
    07:00 -10°C° 0 mm 4 mps 733 mmHg 84%
    08:00 -9°C° 0 mm 4 mps 733 mmHg 82%
    09:00 -9°C° 0 mm 4 mps 734 mmHg 80%
    10:00 -8°C° 0 mm 5 mps 734 mmHg 78%
    11:00 -8°C° 0 mm 5 mps 734 mmHg 77%
    12:00 -7°C° 0 mm 5 mps 733 mmHg 75%
    13:00 -7°C° 0 mm 5 mps 733 mmHg 73%
    14:00 -7°C° 0 mm 5 mps 733 mmHg 74%
    15:00 -8°C° 0 mm 5 mps 734 mmHg 75%
    16:00 -8°C° 0 mm 5 mps 734 mmHg 76%
    17:00 -8°C° 0 mm 5 mps 734 mmHg 77%
    18:00 -8°C° 0 mm 5 mps 734 mmHg 78%
    19:00 -10°C° 0 mm 5 mps 734 mmHg 79%
    20:00 -9°C° 0.2 mm 4 mps 734 mmHg 81%
    21:00 -9°C° 0.2 mm 4 mps 734 mmHg 83%
    22:00 -9°C° 0.2 mm 4 mps 734 mmHg 85%
    23:00 -8°C° 0.3 mm 3 mps 734 mmHg 86%

    Tomorrow, 25 January, Friday

    Time Temperature Precipitation Wind Pressure Humidity
    00:00 -8°C° 0.3 mm 3 mps 734 mmHg 86%
    01:00 -8°C° 0.3 mm 3 mps 734 mmHg 87%
    02:00 -7°C° 0.1 mm 2 mps 734 mmHg 87%
    03:00 -7°C° 0.1 mm 2 mps 734 mmHg 87%
    04:00 -7°C° 0.1 mm 1 mps 734 mmHg 87%
    05:00 -6°C° 0 mm 1 mps 735 mmHg 87%
    06:00 -6°C° 0 mm 1 mps 735 mmHg 88%
    07:00 -6°C° 0 mm 1 mps 735 mmHg 88%
    08:00 -6°C° 0 mm 1 mps 735 mmHg 87%
    09:00 -4°C° 0 mm 1 mps 736 mmHg 85%
    10:00 -4°C° 0 mm 1 mps 736 mmHg 84%
    11:00 -3°C° 0 mm 1 mps 736 mmHg 82%
    12:00 -5°C° 0 mm 2 mps 736 mmHg 81%
    13:00 -4°C° 0 mm 2 mps 736 mmHg 80%
    14:00 -5°C° 0 mm 2 mps 737 mmHg 80%
    15:00 -5°C° 0 mm 2 mps 737 mmHg 81%
    16:00 -5°C° 0 mm 2 mps 737 mmHg 81%
    17:00 -5°C° 0 mm 2 mps 737 mmHg 83%
    18:00 -6°C° 0 mm 2 mps 738 mmHg 84%
    19:00 -6°C° 0 mm 2 mps 738 mmHg 86%
    20:00 -6°C° 0 mm 2 mps 738 mmHg 87%
    21:00 -7°C° 0 mm 2 mps 739 mmHg 87%
    22:00 -6°C° 0 mm 1 mps 739 mmHg 88%
    23:00 -6°C° 0 mm 1 mps 739 mmHg 88%

    Day after tomorrow, 26 January, Saturday

    Time Temperature Precipitation Wind Pressure Humidity
    00:00 -6°C° 0 mm 1 mps 738 mmHg 88%
    01:00 -6°C° 0 mm 1 mps 738 mmHg 88%
    02:00 -8°C° 0 mm 2 mps 738 mmHg 88%
    03:00 -8°C° 0 mm 2 mps 737 mmHg 88%
    04:00 -8°C° 0 mm 2 mps 737 mmHg 88%
    05:00 -7°C° 0 mm 2 mps 737 mmHg 85%
    06:00 -8°C° 0 mm 3 mps 736 mmHg 83%
    07:00 -8°C° 0 mm 3 mps 736 mmHg 81%
    08:00 -7°C° 0 mm 3 mps 735 mmHg 78%
    09:00 -7°C° 0 mm 4 mps 734 mmHg 76%
    10:00 -6°C° 0 mm 5 mps 734 mmHg 73%
    11:00 -5°C° 0.4 mm 5 mps 733 mmHg 78%
    12:00 -5°C° 0.4 mm 6 mps 732 mmHg 84%
    13:00 -4°C° 0.4 mm 7 mps 731 mmHg 90%
    14:00 -3°C° 0.6 mm 6 mps 731 mmHg 89%
    15:00 -3°C° 0.6 mm 6 mps 730 mmHg 88%
    16:00 -2°C° 0.6 mm 6 mps 730 mmHg 87%
    17:00 -1°C° 0.6 mm 5 mps 730 mmHg 89%
    18:00 -1°C° 0.6 mm 5 mps 730 mmHg 91%
    19:00 0°C° 0.6 mm 4 mps 730 mmHg 92%
    20:00 +1°C° 0.2 mm 3 mps 730 mmHg 94%
    21:00 0°C° 0.2 mm 3 mps 730 mmHg 95%
    22:00 +1°C° 0.2 mm 2 mps 731 mmHg 96%
    23:00 +1°C° 0.1 mm 2 mps 731 mmHg 96%

    27 January, Sunday

    Time Temperature Precipitation Wind Pressure Humidity
    00:00 +1°C° 0.1 mm 2 mps 731 mmHg 96%
    01:00 +1°C° 0.1 mm 2 mps 731 mmHg 95%
    02:00 +1°C° 0.1 mm 2 mps 731 mmHg 95%
    03:00 +1°C° 0.1 mm 2 mps 730 mmHg 94%
    04:00 +1°C° 0.1 mm 2 mps 730 mmHg 93%
    05:00 +1°C° 0 mm 2 mps 730 mmHg 93%
    06:00 +1°C° 0 mm 2 mps 730 mmHg 93%
    07:00 +1°C° 0 mm 2 mps 730 mmHg 92%
    08:00 +1°C° 0 mm 2 mps 730 mmHg 93%
    09:00 +2°C° 0 mm 2 mps 730 mmHg 94%
    10:00 +3°C° 0 mm 2 mps 729 mmHg 95%
    11:00 +3°C° 0.1 mm 2 mps 729 mmHg 95%
    12:00 +3°C° 0.1 mm 3 mps 729 mmHg 95%
    13:00 +3°C° 0.1 mm 3 mps 728 mmHg 95%
    14:00 +3°C° 0 mm 3 mps 728 mmHg 94%
    15:00 +3°C° 0 mm 2 mps 727 mmHg 93%
    16:00 +3°C° 0 mm 2 mps 727 mmHg 93%
    17:00 +2°C° 0 mm 2 mps 727 mmHg 92%
    18:00 +2°C° 0 mm 2 mps 727 mmHg 91%
    19:00 +2°C° 0 mm 2 mps 727 mmHg 90%
    20:00 +2°C° 0 mm 2 mps 726 mmHg 89%
    21:00 +2°C° 0 mm 2 mps 726 mmHg 89%
    22:00 +2°C° 0 mm 1 mps 726 mmHg 88%
    23:00 +2°C° 0 mm 1 mps 726 mmHg 88%

    28 January, Monday

    Time Temperature Precipitation Wind Pressure Humidity
    00:00 +1°C° 0 mm 1 mps 725 mmHg 88%
    01:00 +1°C° 0 mm 1 mps 725 mmHg 88%
    02:00 -1°C° 0 mm 2 mps 725 mmHg 88%
    03:00 -2°C° 0 mm 2 mps 724 mmHg 88%
    04:00 -2°C° 0 mm 2 mps 724 mmHg 88%
    05:00 -2°C° 0 mm 2 mps 724 mmHg 88%
    06:00 -2°C° 0 mm 2 mps 724 mmHg 88%
    07:00 -2°C° 0 mm 2 mps 724 mmHg 88%
    08:00 -1°C° 0 mm 2 mps 724 mmHg 88%
    09:00 +1°C° 0 mm 2 mps 724 mmHg 87%
    10:00 +3°C° 0 mm 1 mps 724 mmHg 87%
    11:00 +3°C° 0.3 mm 1 mps 723 mmHg 89%
    12:00 +4°C° 0.3 mm 1 mps 723 mmHg 92%
    13:00 +4°C° 0.3 mm 1 mps 723 mmHg 94%
    14:00 +4°C° 0.6 mm 1 mps 723 mmHg 94%
    15:00 +3°C° 0.6 mm 1 mps 723 mmHg 94%
    16:00 +2°C° 0.6 mm 2 mps 723 mmHg 94%
    17:00 +2°C° 0.1 mm 2 mps 723 mmHg 93%
    18:00 +1°C° 0.1 mm 2 mps 723 mmHg 92%
    19:00 0°C° 0.1 mm 3 mps 724 mmHg 91%
    20:00 0°C° 0 mm 3 mps 724 mmHg 90%
    21:00 0°C° 0 mm 3 mps 724 mmHg 90%
    22:00 -1°C° 0 mm 4 mps 725 mmHg 89%
    23:00 -1°C° 0 mm 4 mps 725 mmHg 89%

    29 January, Tuesday

    Time Temperature Precipitation Wind Pressure Humidity
    00:00 -1°C° 0 mm 4 mps 725 mmHg 88%
    01:00 -1°C° 0 mm 4 mps 726 mmHg 88%
    02:00 0°C° 0 mm 5 mps 726 mmHg 87%
    03:00 0°C° 0 mm 5 mps 727 mmHg 87%
    04:00 0°C° 0 mm 5 mps 727 mmHg 86%
    05:00 -1°C° 0 mm 5 mps 728 mmHg 84%
    06:00 -2°C° 0 mm 5 mps 728 mmHg 83%
    07:00 -4°C° 0 mm 5 mps 729 mmHg 81%
    08:00 -2°C° 0.1 mm 5 mps 730 mmHg 82%
    09:00 -2°C° 0.1 mm 5 mps 731 mmHg 83%
    10:00 -2°C° 0.1 mm 5 mps 732 mmHg 84%
    11:00 -1°C° 0.2 mm 5 mps 732 mmHg 82%
    12:00 -1°C° 0.2 mm 4 mps 733 mmHg 79%
    13:00 -1°C° 0.2 mm 4 mps 733 mmHg 76%
    14:00 0°C° 0 mm 3 mps 733 mmHg 77%
    15:00 -1°C° 0 mm 3 mps 733 mmHg 79%
    16:00 -1°C° 0 mm 2 mps 734 mmHg 80%
    17:00 -2°C° 0 mm 3 mps 734 mmHg 81%
    18:00 -2°C° 0 mm 3 mps 734 mmHg 82%
    19:00 -4°C° 0 mm 3 mps 735 mmHg 83%
    20:00 -4°C° 0 mm 3 mps 735 mmHg 83%
    21:00 -4°C° 0 mm 3 mps 735 mmHg 82%
    22:00 -4°C° 0 mm 3 mps 735 mmHg 82%
    23:00 -4°C° 0 mm 3 mps 735 mmHg 82%
    Show more